Upington, South Africa

9:22 AM SAST on February 08, 2016 (GMT +0200)
Upington

Weather History for FAUP - March, 2013

Change the Weather History Date:

Friday, March 15, 2013

  Actual Average Record
Temperature  
Mean Temperature 83 °F -  
Max Temperature 101 °F 85 °F 101 °F (2013)
Min Temperature 65 °F 58 °F 60 °F (2002)
Cooling Degree Days 18    
Growing Degree Days 33 (Base 50)    
Moisture  
Dew Point 35 °F    
Average Humidity 18    
Maximum Humidity 36    
Minimum Humidity 4    
Precipitation  
Precipitation 0.00 in 0.04 in - ()
Sea Level Pressure  
Sea Level Pressure 29.91 in    
Wind  
Wind Speed 8 mph ()    
Max Wind Speed 18 mph    
Max Gust Speed 29 mph    
Visibility 10.4 miles    
Events      
Averages and records for this station are not official NWS values.
T = Trace of Precipitation, MM = Missing Value Source: Averaged Metar Reports

Daily Weather History Graph

Daily Weather History Graph

Search for Another Location

Airport or City:

Trip Planner

Search our weather history database for the weather conditions in past years. The results will help you decide how hot, cold, wet, or windy it might be!

Date:

Astronomy

Mar. 15, 2013 Rise Set
Actual Time 6:35 AM SAST 6:51 PM SAST
Civil Twilight 6:11 AM SAST 7:15 PM SAST
Nautical Twilight 5:44 AM SAST 7:42 PM SAST
Astronomical Twilight 5:16 AM SAST 8:10 PM SAST
Moon 9:50 AM SAST (3/15) 9:02 PM SAST (3/15)
Length of Visible Light 13h 03m
Length of Day
12h 16m
Waxing Crescent, 13% of the Moon is Illuminated
Mar 15
Waxing Crescent
Mar 19
First Quarter
Mar 27
Full
Apr 3
Last Quarter
Apr 10
New

Hourly Weather History & Observations

Time (SAST) Temp. Dew Point Humidity Pressure Visibility Wind Dir Wind Speed Gust Speed Precip Events Conditions
12:00 AM 75.2 °F 28.4 °F 18% 29.92 in - WSW 5.8 mph - N/A   Unknown
1:00 AM 78.8 °F 33.8 °F 20% 29.92 in - North 8.1 mph - N/A   Clear
2:00 AM 77 °F 40 °F 17%  in 25 mi North 8.1 mph - -  
2:00 AM 75.2 °F 39.2 °F 27% 29.95 in - North 6.9 mph - N/A   Clear
3:00 AM 73.4 °F 39.2 °F 29% 29.95 in - WNW 4.6 mph - N/A   Clear
4:00 AM 71.6 °F 37.4 °F 29% 29.95 in - West 3.5 mph - N/A   Clear
5:00 AM 68 °F 32 °F 16%  in 25 mi West 5.8 mph - -  
5:00 AM 68.0 °F 32.0 °F 26% 29.95 in - West 4.6 mph - N/A   Clear
6:00 AM 68.0 °F 33.8 °F 28% 29.98 in - North 3.5 mph - N/A   Clear
7:00 AM 68.0 °F 37.4 °F 33% 29.98 in - NNE 5.8 mph - N/A   Clear
8:00 AM 78 °F 49 °F 25%  in 16 mi North 6.9 mph - -   Haze
8:00 AM 77.0 °F 48.2 °F 36% 29.98 in - North 6.9 mph - N/A   Clear
9:00 AM 78.8 °F 50.0 °F 36% 29.98 in - North 12.7 mph - N/A   Clear
9:13 AM 82.4 °F 50.0 °F 32% 29.95 in - North 16.1 mph 28.8 mph N/A   Clear
10:00 AM 86.0 °F 50.0 °F 29% 29.95 in - North 18.4 mph - N/A   Clear
10:39 AM 89.6 °F 48.2 °F 24% 29.95 in - NNW 17.3 mph - N/A   Clear
11:00 AM 91 °F 47 °F 13%  in 16 mi NNW 16.1 mph - -   Haze
11:00 AM 89.6 °F 46.4 °F 22% 29.95 in - NNW 16.1 mph - N/A   Clear
12:00 PM 93.2 °F 42.8 °F 17% 29.92 in - NW 12.7 mph - N/A   Clear
1:00 PM 96.8 °F 37.4 °F 13% 29.89 in - NW 10.4 mph - N/A   Clear
2:00 PM 98 °F 35 °F 5%  in 16 mi NW 6.9 mph - -   Haze
2:00 PM 96.8 °F 33.8 °F 11% 29.86 in - NW 5.8 mph - N/A   Clear
3:00 PM 98.6 °F 33.8 °F 10% 29.83 in - West 10.4 mph - N/A   Clear
4:00 PM 98.6 °F 26.6 °F 8% 29.80 in - West 10.4 mph - N/A   Clear
5:00 PM 97 °F 27 °F 4%  in 25 mi West 11.5 mph - -   Scattered Clouds
5:00 PM 96.8 °F 28.4 °F 9% 29.80 in 6.2 mi West 11.5 mph - N/A   Partly Cloudy
6:00 PM 95.0 °F 23.0 °F 8% 29.80 in 6.2 mi West 12.7 mph - N/A   Partly Cloudy
7:00 PM 89.6 °F 19.4 °F 8% 29.83 in 6.2 mi WSW 9.2 mph - N/A   Partly Cloudy
8:00 PM 88 °F 20 °F 4%  in 25 mi WSW 12.7 mph - -   Scattered Clouds
8:00 PM 86.0 °F 21.2 °F 9% 29.83 in 6.2 mi WSW 12.7 mph - N/A   Partly Cloudy
9:00 PM 82.4 °F 17.6 °F 9% 29.86 in - WSW 8.1 mph - N/A   Unknown
10:00 PM 78.8 °F 17.6 °F 10% 29.89 in - WSW 8.1 mph - N/A   Unknown
11:00 PM 78 °F 24 °F 6%  in - SW 10.4 mph - -  
11:00 PM 77.0 °F 24.8 °F 14% 29.89 in - SW 9.2 mph - N/A   Unknown